Batesville, AR

12:27 AM CST on December 06, 2019 (GMT -0600)
Batesville Regional

Weather History for KBVX - July, 2019

Change the Weather History Date:

Thursday, July 18, 2019

  Actual Average Record
Temperature  
Mean Temperature 83 °F -  
Max Temperature 93 °F 94 °F 110 °F (1980)
Min Temperature 73 °F 68 °F 56 °F (1967)
Cooling Degree Days 18    
Growing Degree Days 33 (Base 50)    
Moisture  
Dew Point 75 °F    
Average Humidity 76    
Maximum Humidity 94    
Minimum Humidity 60    
Precipitation  
Precipitation 0.00 in - - ()
Sea Level Pressure  
Sea Level Pressure 29.98 in    
Wind  
Wind Speed 6 mph (SSW)    
Max Wind Speed 15 mph    
Max Gust Speed 20 mph    
Visibility 10 miles    
Events      
Averages and records for this station are not official NWS values.
T = Trace of Precipitation, MM = Missing Value Source: NWS Daily Summary

Daily Weather History Graph

Daily Weather History Graph

Search for Another Location

Airport or City:

Astronomy

Jul. 18, 2019 Rise Set
Actual Time 6:04 AM CDT 8:21 PM CDT
Civil Twilight 5:34 AM CDT 8:50 PM CDT
Nautical Twilight 4:59 AM CDT 9:26 PM CDT
Astronomical Twilight 4:20 AM CDT 10:04 PM CDT
Moon 9:49 PM CDT (7/18) 7:32 AM CDT (7/18)
Length of Visible Light 15h 15m
Length of Day
14h 17m
Full, 97% of the Moon is Illuminated
Jul 18
Full
Jul 24
Last Quarter
Jul 31
New
Aug 7
First Quarter
Aug 15
Full

Hourly Weather History & Observations

Time (CDT) Temp. Heat Index Dew Point Humidity Pressure Visibility Wind Dir Wind Speed Gust Speed Precip Events Conditions
12:56 AM 80.1 °F 85.1 °F 75.0 °F 85% 30.03 in 10.0 mi SSE 4.6 mph - N/A   Clear
1:56 AM 79.0 °F - 75.9 °F 90% 30.03 in 10.0 mi East 8.1 mph - N/A   Mostly Cloudy
2:56 AM 75.9 °F - 72.0 °F 87% 30.02 in 10.0 mi SE 3.5 mph - N/A   Partly Cloudy
3:56 AM 73.9 °F - 71.1 °F 91% 30.00 in 10.0 mi SSE 3.5 mph - N/A   Clear
4:56 AM 73.0 °F - 71.1 °F 93% 30.00 in 10.0 mi Calm Calm - N/A   Clear
5:56 AM 75.0 °F - 73.0 °F 94% 29.99 in 10.0 mi Calm Calm - N/A   Clear
6:56 AM 77.0 °F - 73.9 °F 90% 30.00 in 10.0 mi WSW 3.5 mph - N/A   Clear
7:56 AM 80.1 °F 85.1 °F 75.0 °F 85% 30.00 in 10.0 mi WSW 4.6 mph - N/A   Clear
8:56 AM 84.9 °F 94.1 °F 75.9 °F 74% 29.99 in 10.0 mi WSW 8.1 mph - N/A   Clear
9:56 AM 89.1 °F 101.4 °F 77.0 °F 67% 29.99 in 10.0 mi SW 9.2 mph - N/A   Clear
10:56 AM 90.0 °F 101.3 °F 75.9 °F 63% 29.99 in 10.0 mi West 15.0 mph - N/A   Clear
11:56 AM 91.0 °F 102.9 °F 75.9 °F 61% 29.99 in 10.0 mi WSW 10.4 mph - N/A   Scattered Clouds
12:56 PM 91.9 °F 105.9 °F 77.0 °F 62% 29.98 in 10.0 mi SW 13.8 mph 19.6 mph N/A   Partly Cloudy
1:56 PM 91.0 °F 102.9 °F 75.9 °F 61% 29.97 in 10.0 mi WSW 11.5 mph - N/A   Mostly Cloudy
2:56 PM 93.9 °F 109.9 °F 78.1 °F 60% 29.96 in 10.0 mi SSW 8.1 mph - N/A   Partly Cloudy
3:56 PM 93.0 °F 108.9 °F 78.1 °F 62% 29.94 in 10.0 mi SSW 8.1 mph - N/A   Partly Cloudy
5:56 PM 91.9 °F 105.9 °F 77.0 °F 62% 29.92 in 10.0 mi South 6.9 mph - N/A   Clear
6:56 PM 90.0 °F 102.5 °F 77.0 °F 65% 29.92 in 10.0 mi SSW 6.9 mph - N/A   Clear
7:56 PM 86.0 °F 96.9 °F 77.0 °F 74% 29.93 in 10.0 mi South 5.8 mph - N/A   Clear
8:56 PM 84.0 °F 91.9 °F 75.0 °F 74% 29.93 in 10.0 mi SSW 9.2 mph - N/A   Clear
9:56 PM 82.9 °F 90.2 °F 75.0 °F 77% 29.95 in 10.0 mi SSW 8.1 mph - N/A   Clear
10:56 PM 82.0 °F 88.6 °F 75.0 °F 79% 29.97 in 10.0 mi SSW 4.6 mph - N/A   Clear
11:56 PM 80.1 °F 85.1 °F 75.0 °F 85% 29.97 in 10.0 mi SSE 4.6 mph - N/A   Clear